[[{"header":{"parameterUnit":"m.s-1","parameterCategory":1,"la1":30.2991,"la2":30.254,"lo1":-89.0895,"lo2":-89.0444,"dy":0.0017,"dx":0.0017,"nx":28,"ny":28,"refTime":"2024-10-06T03:00:00:Z","depth":0,"parameterNumber":2,"parameterNumberName":"U-component_of_WINDS"},"data":[0,0,0,0,0,0,0,0,0,0,0,0,0,0,0,0,0,0,0,0,0,0,0,0,0,0,0,0,0,0,0,0,0,0,0,0,0,0,0,0,0,0,0,0,0,0,0,0,0,0,0,0,0,0,0,0,0,0,-3.1906,-3.1907,0,-3.2011,-3.2012,-3.2013,-3.1922,-3.1918,-3.1915,-3.1911,-3.2023,-3.2029,-3.2036,0,0,0,0,0,0,0,0,0,0,0,0,0,-3.1629,-3.1635,-3.1905,-3.1907,-3.1908,-3.201,-3.2012,-3.2013,-3.1923,-3.1918,-3.1914,-3.1909,-3.2021,-3.2028,-3.2036,0,0,0,0,0,0,0,0,0,0,0,0,0,-3.1744,-3.1637,-3.1905,-3.1875,-3.1873,-3.201,-3.2012,-3.2014,-3.1924,-3.1918,-3.1912,-3.1907,-3.2018,-3.2028,-3.2037,-3.221,0,0,-3.2067,-3.2071,0,0,0,0,0,0,0,0,-3.1737,-3.1754,-3.1878,-3.1877,-3.1876,-3.1947,-3.1955,-3.208,-3.1925,-3.1905,-3.1911,-3.1904,-3.2003,-3.2013,-3.2046,-3.2216,-3.222,-3.2068,-3.2074,-3.2078,-3.2081,0,0,0,0,0,0,0,-3.1729,-3.1749,-3.1947,-3.188,-3.1879,-3.1857,-3.1867,-3.1979,-3.1984,-3.1906,-3.19,-3.1913,-3.2001,-3.2036,-3.2047,-3.2222,-3.2068,-3.2076,-3.2082,-3.2086,-3.254,-3.2546,0,0,0,0,0,0,-3.1724,-3.1743,-3.1944,-3.195,-3.1791,-3.1867,-3.1878,-3.193,-3.1983,-3.1985,-3.1918,-3.1909,-3.2023,-3.2036,-3.2051,-3.2258,-3.2078,-3.2087,-3.2093,-3.2534,-3.2542,-3.2549,0,0,0,0,0,0,-3.1719,-3.1743,-3.1939,-3.1845,-3.1868,-3.1878,-3.1937,-3.1935,-3.1971,-3.1992,-3.1992,-3.1953,-3.2019,-3.2037,-3.2171,-3.2261,-3.2091,-3.21,-3.2527,-3.2537,-3.2545,-3.2674,0,0,0,0,0,0,-3.1711,-3.1741,-3.1807,-3.1847,-3.1874,-3.2058,-3.1942,-3.1941,-3.1987,-3.1976,-3.2025,-3.2028,-3.2016,-3.2157,-3.2181,-3.2271,-3.2108,-3.2519,-3.2531,-3.2542,-3.2662,-3.2687,-3.2708,0,0,0,0,0,-3.1702,-3.1839,-3.181,-3.1835,-3.1955,-3.2063,-3.2078,-3.2061,-3.1995,-3.2061,-3.2074,-3.2026,-3.2247,-3.2172,-3.2198,-3.2292,-3.2513,-3.2528,-3.2541,-3.2652,-3.2682,-3.2707,0,0,0,0,0,0,-3.1811,-3.1844,-3.1812,-3.1967,-3.2013,-3.2047,-3.213,-3.2093,-3.2159,-3.2146,-3.2122,-3.2134,-3.2276,-3.2297,-3.2213,-3.2463,-3.237,-3.239,-3.2445,-3.2473,-3.2496,-3.2489,-3.2116,0,0,0,0,0,-3.1853,-3.1936,-3.1961,-3.2095,-3.212,-3.2121,-3.2167,-3.215,-3.2197,-3.2216,-3.2239,-3.2287,-3.2367,-3.2421,-3.2496,-3.2663,-3.2674,-3.2741,-3.2764,-3.2783,-3.2801,-3.2893,-3.2924,-3.2595,-3.2595,-3.2594,0,0,-3.1941,-3.1969,-3.2024,-3.2118,-3.2151,-3.224,-3.2138,-3.2236,-3.2302,-3.2231,-3.2359,-3.2378,-3.243,-3.2582,-3.265,-3.2604,-3.2894,-3.2801,-3.2816,-3.2824,-3.2911,-3.2942,-3.2969,-3.2604,-3.2602,-3.2601,0,0,-3.2146,-3.2175,-3.2291,-3.2326,-3.2377,-3.2377,-3.2405,-3.2445,-3.2455,-3.2582,-3.2531,-3.261,-3.2748,-3.2788,-3.2826,-3.3046,-3.3005,-3.3071,-3.3193,-3.3282,-3.3308,-3.3331,-3.3412,-3.344,-3.3089,-3.3089,-3.309,0,-3.225,-3.238,-3.2355,-3.2457,-3.2501,-3.2439,-3.2557,-3.2592,-3.2666,-3.2698,-3.2645,-3.2817,-3.2848,-3.3009,-3.3063,-3.3095,-3.3128,-3.3067,-3.3306,-3.3329,-3.335,-3.3426,-3.3457,-3.3097,-3.3096,-3.3095,-3.3095,0,-3.2505,-3.2596,-3.2684,-3.2755,-3.2808,-3.2918,-3.2911,-3.2968,-3.2945,-3.2952,-3.3083,-3.3117,-3.3199,-3.3235,-3.3214,-3.3394,-3.3364,-3.3309,-3.3215,-3.3389,-3.3461,-3.349,-3.3109,-3.3106,-3.3103,-3.3101,0,0,-3.2785,-3.2841,-3.2874,-3.2906,-3.2957,-3.3028,-3.3134,-3.3212,-3.3262,-3.3315,-3.3405,-3.3523,-3.3472,-3.3516,-3.3499,-3.3577,-3.3752,-3.3513,-3.3514,-3.3558,-3.3954,-3.3997,-3.4031,-3.3724,-3.3729,-3.3733,-3.395,0,-3.2994,-3.3179,-3.316,-3.3336,-3.3421,-3.3363,-3.3456,-3.3498,-3.3507,-3.3581,-3.359,-3.3675,-3.36,-3.3626,-3.3701,-3.3715,-3.3832,-3.3699,-3.381,-3.3814,-3.3801,-3.4068,-3.4114,-3.4317,-3.3978,-3.3983,-3.3986,0,-3.3264,-3.3325,-3.3509,-3.3548,-3.3583,-3.3667,-3.3737,-3.3808,-3.3855,-3.3856,-3.3904,-3.3874,-3.3982,-3.3884,-3.4035,-3.3945,-3.3989,-3.4002,-3.401,-3.4022,-3.3912,-3.409,-3.4381,-3.4413,-3.403,-3.4026,-3.4023,0,-3.3452,-3.358,-3.3707,-3.3736,-3.3784,-3.3845,-3.3868,-3.3909,-3.3957,-3.4019,-3.4051,-3.4125,-3.4166,-3.4224,-3.4215,-3.4144,-3.437,-3.427,-3.4375,-3.4376,-3.4427,-3.4425,-3.4732,-3.4452,-3.4451,-3.4451,-3.445,0,-3.3689,-3.3805,-3.3792,-3.3871,-3.3999,-3.3976,-3.4104,-3.412,-3.4157,-3.4239,-3.4193,-3.4271,-3.4252,-3.433,-3.4324,-3.445,-3.4469,-3.4474,-3.4471,-3.448,-3.4479,-3.451,-3.4497,-3.4459,-3.4457,-3.4455,-3.4454,0,-3.3922,-3.3918,-3.4053,-3.4087,-3.4098,-3.4192,-3.4221,-3.4296,-3.4299,-3.4403,-3.4427,-3.4433,-3.4523,-3.4518,-3.462,-3.4615,-3.4772,-3.4752,-3.4756,-3.4753,-3.4859,-3.485,-3.5199,-3.5244,-3.4932,-3.4935,-3.4938,0,-3.4075,-3.4163,-3.4205,-3.4256,-3.4283,-3.4365,-3.4414,-3.4395,-3.4448,-3.4508,-3.4576,-3.466,-3.4727,-3.4873,-3.4888,-3.4965,-3.4948,-3.5065,-3.4959,-3.4965,-3.4952,-3.4948,-3.4958,-3.5086,-3.509,-3.5093,-3.5095,0,-3.4348,-3.4341,-3.4412,-3.4484,-3.4543,-3.4599,-3.4649,-3.4694,-3.468,-3.4742,-3.4832,-3.4884,-3.4986,-3.5072,-3.5146,-3.517,-3.5132,-3.5128,-3.5156,-3.5167,-3.5167,-3.5171,-3.4815,-3.512,-3.5118,-3.5116,-3.5115,-3.5114,-3.4547,-3.4622,-3.4664,-3.4746,-3.4781,-3.483,-3.4902,-3.4914,-3.4988,-3.507,-3.5054,-3.5155,-3.52,-3.5296,-3.5327,-3.5407,-3.5366,-3.5407,-3.5418,-3.5429,-3.5442,-3.5152,-3.5421,-3.542,-3.5419,-3.5418,-3.5418,0,-3.4818,-3.4842,-3.4917,-3.4989,-3.5054,-3.5009,-3.5063,-3.512,-3.521,-3.5254,-3.5321,-3.5425,-3.5507,-3.5528,-3.5607,-3.5668,-3.5652,-3.5689,-3.5686,-3.5693,-3.5474,-3.5442,-3.5701,-3.5701,-3.5701,-3.5701,-3.5701,-3.5701,-3.4968,-3.5094,-3.5092,-3.5236,-3.5258,-3.5357,-3.5392,-3.5437,-3.5472,-3.559,-3.5658,-3.567,-3.5706,-3.5787,-3.5862,-3.5866,-3.5898,-3.5943,-3.5941,-3.5736,-3.5708,-3.5681,-3.5651,-3.595,-3.595,-3.6154,-3.6156,-3.6157]},{"header":{"parameterUnit":"m.s-1","parameterCategory":1,"la1":30.2991,"la2":30.254,"lo1":-89.0895,"lo2":-89.0444,"dy":0.0017,"dx":0.0017,"nx":28,"ny":28,"refTime":"2024-10-06T03:00:00:Z","depth":0,"parameterNumber":3,"parameterNumberName":"V-component_of_WINDS"},"data":[0,0,0,0,0,0,0,0,0,0,0,0,0,0,0,0,0,0,0,0,0,0,0,0,0,0,0,0,0,0,0,0,0,0,0,0,0,0,0,0,0,0,0,0,0,0,0,0,0,0,0,0,0,0,0,0,0,0,-3.7514,-3.7514,0,-3.7503,-3.7503,-3.7503,-3.7434,-3.7432,-3.743,-3.7429,-3.7417,-3.7419,-3.742,0,0,0,0,0,0,0,0,0,0,0,0,0,-3.7475,-3.7476,-3.7514,-3.7514,-3.7514,-3.7503,-3.7503,-3.7503,-3.7434,-3.7432,-3.743,-3.7428,-3.7417,-3.7418,-3.742,0,0,0,0,0,0,0,0,0,0,0,0,0,-3.7481,-3.7476,-3.7514,-3.7478,-3.7475,-3.7503,-3.7503,-3.7503,-3.7434,-3.7432,-3.7429,-3.7427,-3.7416,-3.7418,-3.742,-3.7482,0,0,-3.7426,-3.7427,0,0,0,0,0,0,0,0,-3.748,-3.7482,-3.7484,-3.7481,-3.7477,-3.7467,-3.7485,-3.7496,-3.7435,-3.745,-3.7429,-3.7426,-3.7436,-3.7436,-3.744,-3.7482,-3.7481,-3.7426,-3.7427,-3.7428,-3.7429,0,0,0,0,0,0,0,-3.748,-3.7482,-3.751,-3.7484,-3.748,-3.7462,-3.746,-3.7487,-3.7457,-3.7448,-3.7443,-3.7443,-3.7434,-3.7438,-3.7439,-3.7481,-3.7426,-3.7428,-3.7429,-3.743,-3.7571,-3.7574,0,0,0,0,0,0,-3.7485,-3.7482,-3.751,-3.751,-3.7473,-3.7465,-3.7463,-3.7473,-3.7457,-3.7452,-3.7445,-3.744,-3.7436,-3.7437,-3.7438,-3.7508,-3.7428,-3.743,-3.7431,-3.7569,-3.7572,-3.7575,0,0,0,0,0,0,-3.7484,-3.7488,-3.7511,-3.7495,-3.7496,-3.7468,-3.748,-3.7474,-3.7478,-3.7454,-3.7448,-3.7455,-3.7434,-3.7435,-3.7471,-3.7507,-3.7431,-3.7432,-3.7565,-3.7569,-3.7573,-3.7649,0,0,0,0,0,0,-3.7483,-3.7488,-3.7512,-3.7496,-3.7497,-3.7545,-3.7483,-3.7476,-3.7482,-3.7474,-3.7462,-3.7457,-3.7432,-3.7469,-3.7473,-3.7508,-3.7434,-3.7562,-3.7567,-3.7572,-3.7644,-3.7656,-3.7666,0,0,0,0,0,-3.7482,-3.7535,-3.7514,-3.7517,-3.7526,-3.7547,-3.7548,-3.7518,-3.7485,-3.7508,-3.7492,-3.7458,-3.7502,-3.7473,-3.7477,-3.7513,-3.756,-3.7566,-3.7571,-3.7639,-3.7653,-3.7665,0,0,0,0,0,0,-3.7556,-3.7532,-3.7508,-3.7557,-3.7554,-3.7535,-3.7564,-3.7534,-3.7541,-3.7534,-3.7497,-3.7494,-3.7535,-3.7528,-3.7496,-3.7571,-3.7525,-3.7532,-3.7575,-3.7588,-3.7599,-3.7599,-3.7435,0,0,0,0,0,-3.7578,-3.7597,-3.7575,-3.762,-3.7619,-3.7592,-3.76,-3.7577,-3.7573,-3.7571,-3.7558,-3.7556,-3.7568,-3.7578,-3.7589,-3.7642,-3.7638,-3.7669,-3.768,-3.7689,-3.7696,-3.7721,-3.7734,-3.7594,-3.7594,-3.7594,0,0,-3.7624,-3.7613,-3.7627,-3.7634,-3.7629,-3.7649,-3.7592,-3.7615,-3.7629,-3.7575,-3.7607,-3.7598,-3.7592,-3.7636,-3.7655,-3.7632,-3.7733,-3.7697,-3.7704,-3.7705,-3.7729,-3.7742,-3.7754,-3.7598,-3.7597,-3.7597,0,0,-3.7717,-3.7711,-3.7746,-3.7743,-3.7736,-3.7717,-3.7726,-3.7711,-3.7702,-3.7734,-3.7693,-3.7709,-3.7733,-3.773,-3.7731,-3.7821,-3.7789,-3.7826,-3.7883,-3.7909,-3.792,-3.7929,-3.796,-3.7972,-3.7833,-3.7833,-3.7833,0,-3.7774,-3.7802,-3.7769,-3.7794,-3.7798,-3.7749,-3.7784,-3.7782,-3.778,-3.7783,-3.7757,-3.7784,-3.7777,-3.7819,-3.7841,-3.7845,-3.7852,-3.7827,-3.7921,-3.793,-3.7939,-3.7967,-3.7979,-3.7837,-3.7837,-3.7836,-3.7836,0,-3.7872,-3.7892,-3.7922,-3.792,-3.7927,-3.7957,-3.7928,-3.7939,-3.7915,-3.7899,-3.7931,-3.792,-3.7927,-3.7936,-3.7913,-3.7974,-3.7959,-3.7928,-3.788,-3.7957,-3.7983,-3.7994,-3.7843,-3.7842,-3.7841,-3.7839,0,0,-3.8012,-3.799,-3.8001,-3.7998,-3.7987,-3.8001,-3.8029,-3.8035,-3.8045,-3.8045,-3.8066,-3.8087,-3.8057,-3.8059,-3.8035,-3.8058,-3.8127,-3.8022,-3.8022,-3.8041,-3.8192,-3.8215,-3.8228,-3.8106,-3.8108,-3.811,-3.8192,0,-3.8099,-3.8145,-3.8115,-3.8166,-3.8183,-3.8136,-3.8159,-3.8155,-3.814,-3.8152,-3.8135,-3.815,-3.811,-3.8111,-3.8131,-3.8115,-3.8157,-3.8108,-3.8125,-3.8126,-3.8126,-3.8242,-3.8267,-3.8345,-3.8202,-3.8204,-3.8205,0,-3.8208,-3.8211,-3.8263,-3.8246,-3.8252,-3.8274,-3.8276,-3.8289,-3.8282,-3.8269,-3.8271,-3.8241,-3.8266,-3.822,-3.8253,-3.8221,-3.8226,-3.8219,-3.8221,-3.822,-3.8169,-3.8244,-3.8369,-3.8381,-3.8221,-3.822,-3.8219,0,-3.8302,-3.832,-3.8353,-3.8352,-3.8334,-3.835,-3.8343,-3.8333,-3.8338,-3.8341,-3.8343,-3.8349,-3.8352,-3.8356,-3.8328,-3.8297,-3.8365,-3.8317,-3.8354,-3.8355,-3.837,-3.8369,-3.8497,-3.8375,-3.8375,-3.8375,-3.8375,0,-3.8403,-3.8436,-3.8394,-3.8415,-3.845,-3.8415,-3.845,-3.8439,-3.843,-3.8446,-3.8407,-3.8423,-3.8385,-3.8398,-3.8376,-3.8406,-3.8408,-3.8398,-3.8391,-3.8401,-3.8402,-3.8402,-3.8396,-3.8378,-3.8377,-3.8377,-3.8376,0,-3.8514,-3.8488,-3.852,-3.8499,-3.8495,-3.8522,-3.8503,-3.8521,-3.8503,-3.8524,-3.8527,-3.8499,-3.8511,-3.8483,-3.8492,-3.8477,-3.8519,-3.8505,-3.8522,-3.8517,-3.8555,-3.8551,-3.8687,-3.8702,-3.8573,-3.8574,-3.8575,0,-3.8579,-3.8603,-3.8585,-3.8592,-3.8587,-3.8601,-3.8605,-3.8571,-3.8578,-3.857,-3.8588,-3.8597,-3.8602,-3.8623,-3.8603,-3.8609,-3.8594,-3.8641,-3.8594,-3.8602,-3.8593,-3.8591,-3.8592,-3.865,-3.8652,-3.8653,-3.8654,0,-3.8697,-3.8682,-3.869,-3.8693,-3.8699,-3.8701,-3.8699,-3.8707,-3.8671,-3.868,-3.8691,-3.8695,-3.8703,-3.8711,-3.8712,-3.8705,-3.8673,-3.8669,-3.8678,-3.8687,-3.8695,-3.8689,-3.8546,-3.8666,-3.8665,-3.8664,-3.8663,-3.8663,-3.8786,-3.8804,-3.8794,-3.8803,-3.8798,-3.8797,-3.8811,-3.8794,-3.8803,-3.8806,-3.8786,-3.8801,-3.8792,-3.879,-3.8786,-3.8797,-3.8775,-3.8789,-3.8791,-3.8795,-3.88,-3.8694,-3.8797,-3.8797,-3.8796,-3.8796,-3.8796,0,-3.89,-3.889,-3.89,-3.8897,-3.8905,-3.8874,-3.887,-3.8878,-3.8892,-3.8886,-3.8891,-3.8903,-3.8911,-3.8891,-3.8896,-3.8909,-3.8894,-3.8911,-3.8909,-3.8907,-3.882,-3.8811,-3.8922,-3.8922,-3.8922,-3.8922,-3.8922,-3.8922,-3.896,-3.8989,-3.8973,-3.8998,-3.8988,-3.9002,-3.9002,-3.9001,-3.8995,-3.901,-3.9016,-3.9003,-3.8992,-3.8995,-3.9,-3.8994,-3.8997,-3.9018,-3.9007,-3.8926,-3.8914,-3.8902,-3.8893,-3.902,-3.902,-3.9093,-3.9094,-3.9094]}]]